[[{"header":{"parameterUnit":"m.s-1","parameterCategory":2,"la1":30.2992,"la2":30.254,"lo1":-89.0895,"lo2":-89.0443,"dy":0.0025,"dx":0.0025,"nx":19,"ny":19,"refTime":"2026-05-10T09:00:00:Z","depth":"0","parameterNumber":2,"parameterNumberName":"U-component_of_CURRENTS"},"data":[0,0,0,0.0236,0.0236,0.0233,0.0233,0.021,0.021,0,0,0,0,0,0,0,0,0,0,0,0.0237,0.0237,0.0236,0.0236,0.0233,0.0233,0.021,0.021,0,0,0,0,0,0,0,0,0,0,0,0.0237,0.0237,0.0237,0.0236,0.0233,0.0233,0.021,0.0218,0,0,0,0,0,0,0,0,0,0,0.0224,0.0209,0.0237,0.0237,0.0236,0.0233,0.0233,0.0219,0.0217,0.0205,0,0.0203,0,0.0204,0.0208,0.0207,0,0,0,0.0239,0.0209,0.0225,0.0237,0.0236,0.0233,0.0235,0.0218,0.0217,0.0204,0.0202,0.0202,0.0203,0.0207,0.0207,0.02,0.02,0,0,0.0239,0.022,0.0226,0.0224,0.0232,0.0235,0.0235,0.0218,0.0204,0.0202,0.0201,0.0203,0.0207,0.0207,0.02,0.02,0,0,0,0.0238,0.022,0.0237,0.0225,0.0225,0.0235,0.0235,0.0205,0.0215,0.0201,0.0203,0.0207,0.0207,0.02,0.02,0.0231,0,0,0,0.0238,0.0219,0.0237,0.0223,0.0225,0.0213,0.0222,0.0216,0.0214,0.0203,0.0207,0.0206,0.0199,0.02,0.023,0.021,0,0,0,0.0238,0.0219,0.0222,0.0222,0.0222,0.0213,0.0222,0.0216,0.0215,0.0207,0.0206,0.0199,0.02,0.0229,0.0209,0.0217,0,0,0,0.0215,0.0208,0.0221,0.0211,0.0222,0.0235,0.0222,0.0223,0.0219,0.0207,0.0199,0.02,0.0229,0.0208,0.0217,0.0209,0.021,0,0,0.0198,0.0204,0.0202,0.0215,0.0204,0.0236,0.0242,0.0231,0.022,0.0204,0.0204,0.0231,0.0209,0.0217,0.0232,0.0233,0,0,0,0.0192,0.0188,0.0185,0.0183,0.0201,0.0215,0.0229,0.0245,0.0246,0.0219,0.023,0.0214,0.0219,0.0213,0.0214,0.0217,0.0202,0.0202,0.0202,0.0146,0.0164,0.015,0.0169,0.018,0.0211,0.0233,0.0258,0.0255,0.0269,0.0242,0.0265,0.0261,0.0261,0.0265,0.0261,0.0261,0.0261,0.0261,0.0111,0.0114,0.013,0.0121,0.0152,0.0176,0.0238,0.0258,0.0281,0.0276,0.028,0.0248,0.0264,0.0267,0.0263,0.0263,0.0262,0.0262,0.0262,0.0079,0.0088,0.008,0.0081,0.0109,0.0155,0.0205,0.0249,0.028,0.0289,0.0272,0.0271,0.0271,0.0293,0.0293,0.0293,0.0293,0.0293,0.0293,0.0058,0.0058,0.0038,0.0044,0.0057,0.0102,0.018,0.0215,0.0255,0.0277,0.0277,0.0277,0.0274,0.0269,0.0293,0.0293,0.0293,0.0293,0.0293,0.004,0.0033,-0.0002,-0.0009,0.0022,0.0058,0.0133,0.0198,0.0228,0.024,0.0281,0.0281,0.0262,0.0261,0.0255,0.0273,0.0273,0.0273,0.0273,0.0027,0.0023,-0.003,-0.0038,-0.0018,0.0045,0.0085,0.0154,0.023,0.0265,0.0275,0.028,0.0281,0.0262,0.0261,0.0255,0.0273,0.0273,0.0273,0.0013,-0.0005,-0.005,-0.0061,-0.0033,0.0027,0.0056,0.0112,0.0225,0.0274,0.0282,0.0282,0.029,0.029,0.0262,0.026,0.025,0,0]},{"header":{"parameterUnit":"m.s-1","parameterCategory":2,"la1":30.2992,"la2":30.254,"lo1":-89.0895,"lo2":-89.0443,"dy":0.0025,"dx":0.0025,"nx":19,"ny":19,"refTime":"2026-05-10T09:00:00:Z","depth":"0","parameterNumber":3,"parameterNumberName":"V-component_of_CURRENTS"},"data":[0,0,0,-0.1093,-0.1097,-0.1296,-0.1297,-0.1489,-0.149,0,0,0,0,0,0,0,0,0,0,0,-0.1007,-0.1008,-0.1092,-0.1097,-0.1296,-0.1297,-0.1488,-0.149,0,0,0,0,0,0,0,0,0,0,0,-0.1007,-0.1008,-0.1009,-0.1098,-0.1296,-0.1297,-0.1488,-0.1354,0,0,0,0,0,0,0,0,0,0,-0.1168,-0.1069,-0.1008,-0.1009,-0.1099,-0.1295,-0.1297,-0.1348,-0.1362,-0.138,0,-0.1404,0,-0.1458,-0.1501,-0.1502,0,0,0,-0.1098,-0.1057,-0.1143,-0.1009,-0.1101,-0.1295,-0.1207,-0.1356,-0.1372,-0.1398,-0.1407,-0.1416,-0.1461,-0.1502,-0.1503,-0.1593,-0.1592,0,0,-0.1087,-0.1016,-0.1132,-0.1152,-0.1143,-0.12,-0.1213,-0.1367,-0.1358,-0.1408,-0.1421,-0.1464,-0.1504,-0.1505,-0.1593,-0.1593,0,0,0,-0.1055,-0.1007,-0.109,-0.1143,-0.1189,-0.1206,-0.122,-0.1351,-0.1388,-0.1423,-0.1467,-0.1505,-0.1507,-0.1593,-0.1593,-0.1484,0,0,0,-0.1048,-0.099,-0.1085,-0.1041,-0.1186,-0.1274,-0.12,-0.1376,-0.1396,-0.1466,-0.1505,-0.1508,-0.1593,-0.1593,-0.1488,-0.1436,0,0,0,-0.1,-0.0984,-0.1012,-0.1037,-0.1129,-0.1274,-0.1319,-0.1382,-0.1423,-0.1502,-0.1509,-0.1594,-0.1593,-0.1491,-0.1442,-0.1456,0,0,0,-0.0915,-0.0931,-0.1009,-0.1038,-0.1127,-0.1229,-0.1318,-0.1391,-0.1449,-0.1505,-0.1593,-0.1593,-0.1492,-0.1446,-0.1459,-0.14,-0.1383,0,0,-0.089,-0.0925,-0.0948,-0.1025,-0.1117,-0.1202,-0.1245,-0.136,-0.1446,-0.154,-0.1543,-0.1487,-0.1443,-0.1457,-0.1361,-0.1345,0,0,0,-0.0913,-0.0931,-0.0968,-0.1044,-0.1139,-0.1193,-0.1299,-0.1343,-0.1432,-0.1482,-0.1503,-0.148,-0.1492,-0.1463,-0.145,-0.1418,-0.159,-0.159,-0.159,-0.0787,-0.0883,-0.0927,-0.1039,-0.109,-0.1188,-0.1222,-0.1303,-0.1378,-0.1395,-0.1403,-0.1354,-0.132,-0.131,-0.1277,-0.1421,-0.142,-0.142,-0.142,-0.0765,-0.0798,-0.0901,-0.0975,-0.1051,-0.1085,-0.1173,-0.1213,-0.1268,-0.1325,-0.1343,-0.1363,-0.1289,-0.1259,-0.1413,-0.1414,-0.1415,-0.1416,-0.1416,-0.0696,-0.0721,-0.0786,-0.0894,-0.0941,-0.1018,-0.1051,-0.1102,-0.1189,-0.1181,-0.1219,-0.122,-0.1189,-0.1209,-0.1208,-0.1208,-0.1208,-0.1208,-0.1208,-0.0584,-0.0657,-0.0713,-0.0807,-0.0849,-0.0895,-0.0974,-0.1014,-0.1063,-0.1101,-0.1102,-0.1156,-0.1291,-0.1294,-0.1205,-0.1205,-0.1206,-0.1206,-0.1206,-0.0504,-0.0554,-0.0629,-0.0681,-0.0777,-0.0802,-0.088,-0.0943,-0.0979,-0.0991,-0.0988,-0.1088,-0.1131,-0.1142,-0.1142,-0.102,-0.102,-0.102,-0.102,-0.0439,-0.0475,-0.0584,-0.0653,-0.0709,-0.0759,-0.0807,-0.0863,-0.0889,-0.0879,-0.0893,-0.0899,-0.0909,-0.0941,-0.0957,-0.0955,-0.0788,-0.0788,-0.0788,-0.0401,-0.0448,-0.0513,-0.0622,-0.0685,-0.0728,-0.0779,-0.0784,-0.0775,-0.0779,-0.0855,-0.0865,-0.0879,-0.0896,-0.0957,-0.0981,-0.0984,0,0]}],[{"header":{"parameterUnit":"m.s-1","parameterCategory":2,"la1":30.2992,"la2":30.254,"lo1":-89.0895,"lo2":-89.0443,"dy":0.0025,"dx":0.0025,"nx":19,"ny":19,"refTime":"2026-05-10T09:00:00:Z","depth":"2","parameterNumber":2,"parameterNumberName":"U-component_of_CURRENTS"},"data":[0,0,0,0.105,0.1048,0.1049,0.105,0.1197,0.1198,0,0,0,0,0,0,0,0,0,0,0,0.1064,0.1062,0.1051,0.1048,0.1049,0.105,0.1197,0.1198,0,0,0,0,0,0,0,0,0,0,0,0.1064,0.1063,0.1061,0.1048,0.1049,0.105,0.1197,0.1176,0,0,0,0,0,0,0,0,0,0,0.1164,0.1145,0.1063,0.1061,0.1047,0.1049,0.105,0.1175,0.1178,0.1216,0,0.117,0,0.1152,0.1205,0.1205,0,0,0,0.1118,0.1142,0.111,0.1061,0.1046,0.1048,0.1068,0.1176,0.1179,0.1221,0.1172,0.1176,0.1154,0.1205,0.1206,0.1249,0.1249,0,0,0.1118,0.1111,0.1107,0.111,0.0988,0.1068,0.1067,0.1177,0.1178,0.1172,0.1178,0.1157,0.1206,0.1207,0.125,0.1249,0,0,0,0.1071,0.1111,0.1077,0.1106,0.1074,0.1066,0.1066,0.1175,0.1151,0.1179,0.1158,0.1207,0.1208,0.125,0.125,0.1181,0,0,0,0.1074,0.1078,0.1076,0.108,0.1069,0.1105,0.1061,0.1145,0.1155,0.1158,0.1207,0.1209,0.125,0.125,0.1184,0.1163,0,0,0,0.1074,0.108,0.1054,0.1078,0.1041,0.1102,0.109,0.1148,0.114,0.1205,0.1209,0.1251,0.125,0.1186,0.1166,0.1204,0,0,0,0.1108,0.1025,0.1053,0.1003,0.104,0.1021,0.1089,0.1112,0.1159,0.1207,0.125,0.125,0.1187,0.1169,0.1205,0.1144,0.1134,0,0,0.1018,0.1014,0.0996,0.102,0.1015,0.103,0.1034,0.112,0.1167,0.1238,0.1238,0.1183,0.1167,0.1204,0.1106,0.1097,0,0,0,0.0982,0.0954,0.0967,0.0975,0.0986,0.1022,0.106,0.1082,0.1148,0.1174,0.1189,0.1181,0.1207,0.1173,0.1165,0.1246,0.1247,0.1247,0.1247,0.0847,0.0903,0.0888,0.0945,0.0958,0.1006,0.1033,0.1067,0.1106,0.112,0.1129,0.1115,0.1074,0.1069,0.113,0.1129,0.1129,0.1129,0.1129,0.0764,0.0767,0.0845,0.0836,0.0904,0.09,0.0986,0.1017,0.1067,0.1087,0.1116,0.1105,0.1057,0.1123,0.1124,0.1125,0.1126,0.1126,0.1126,0.0705,0.0708,0.0713,0.076,0.0761,0.0827,0.0872,0.0943,0.1011,0.1024,0.1043,0.1043,0.1101,0.105,0.105,0.105,0.105,0.105,0.105,0.0651,0.0661,0.0644,0.0681,0.0678,0.072,0.0815,0.0866,0.0936,0.0977,0.0978,0.109,0.1092,0.1099,0.105,0.105,0.105,0.105,0.105,0.0606,0.0599,0.0585,0.0578,0.0626,0.0651,0.074,0.0817,0.0878,0.0898,0.0975,0.0976,0.1009,0.1015,0.1021,0.0956,0.0956,0.0956,0.0956,0.0561,0.057,0.0531,0.055,0.06,0.0637,0.0635,0.0631,0.0716,0.0702,0.0713,0.0674,0.0685,0.0699,0.0712,0.0711,0.0565,0.0564,0.0563,0.0555,0.0528,0.0495,0.0529,0.0593,0.061,0.0564,0.0437,0.0374,0.0543,0.0593,0.0939,0.0912,0.0917,0.0966,0.0976,0.0987,0,0]},{"header":{"parameterUnit":"m.s-1","parameterCategory":2,"la1":30.2992,"la2":30.254,"lo1":-89.0895,"lo2":-89.0443,"dy":0.0025,"dx":0.0025,"nx":19,"ny":19,"refTime":"2026-05-10T09:00:00:Z","depth":"2","parameterNumber":3,"parameterNumberName":"V-component_of_CURRENTS"},"data":[0,0,0,0.0258,0.0252,0.0172,0.0173,0.0278,0.0278,0,0,0,0,0,0,0,0,0,0,0,0.0329,0.0326,0.0258,0.0251,0.0172,0.0173,0.0278,0.0278,0,0,0,0,0,0,0,0,0,0,0,0.033,0.0327,0.0324,0.025,0.0171,0.0173,0.0278,0.0318,0,0,0,0,0,0,0,0,0,0,0.0383,0.0392,0.0328,0.0324,0.0249,0.0171,0.0173,0.0319,0.0316,0.0332,0,0.0246,0,0.0186,0.0277,0.0277,0,0,0,0.0383,0.0395,0.0316,0.0323,0.0246,0.0171,0.0245,0.0317,0.0313,0.0327,0.0247,0.0248,0.0188,0.0277,0.0277,0.0227,0.0227,0,0,0.0387,0.0394,0.0318,0.0311,0.0131,0.0246,0.024,0.0314,0.0306,0.0247,0.0248,0.019,0.0277,0.0277,0.0228,0.0227,0,0,0,0.0311,0.0397,0.0318,0.031,0.0234,0.0241,0.0235,0.0307,0.026,0.0249,0.0191,0.0277,0.0277,0.0228,0.0228,0.0131,0,0,0,0.032,0.0341,0.0318,0.0334,0.0228,0.0239,0.0227,0.0259,0.0261,0.0191,0.0277,0.0277,0.0229,0.0228,0.0135,0.0182,0,0,0,0.035,0.0346,0.0295,0.0332,0.0225,0.0235,0.0202,0.026,0.022,0.0277,0.0277,0.0229,0.0228,0.0138,0.0185,0.0215,0,0,0,0.0425,0.0318,0.0295,0.0236,0.0224,0.0164,0.0202,0.021,0.0255,0.0277,0.0229,0.0228,0.0139,0.0187,0.0216,0.0322,0.0326,0,0,0.0338,0.0308,0.0297,0.0271,0.0265,0.0191,0.0149,0.0214,0.0245,0.0244,0.0242,0.0133,0.0185,0.0215,0.0252,0.0259,0,0,0,0.0309,0.0265,0.0281,0.0266,0.0237,0.0215,0.0163,0.0142,0.0158,0.0228,0.0136,0.0174,0.0196,0.026,0.0265,0.0222,0.0222,0.0222,0.0222,0.0208,0.0259,0.0252,0.0268,0.026,0.0196,0.0181,0.0127,0.0098,0.0082,0.0092,0.006,0.0122,0.0128,0.0044,0.0044,0.0043,0.0043,0.0043,0.0178,0.0189,0.025,0.0237,0.0239,0.0161,0.0135,0.0091,0.0038,0.0028,0.005,0.0153,0.0128,0.0035,0.0037,0.0038,0.0038,0.0039,0.0039,0.0176,0.017,0.0165,0.021,0.0155,0.0118,0.013,0.007,0.0043,0.0022,0.0125,0.0128,0.0064,0.0002,0.0003,0.0003,0.0003,0.0003,0.0004,0.0191,0.0183,0.0153,0.0158,0.0134,0.0124,0.011,0.014,0.015,0.011,0.011,0.0049,0.0051,0.0066,0.0008,0.0007,0.0006,0.0006,0.0006,0.0205,0.0164,0.0159,0.0137,0.0153,0.0175,0.0194,0.0272,0.0266,0.0302,0.0177,0.0171,0.0247,0.0245,0.0267,0.0266,0.0266,0.0266,0.0266,0.0186,0.018,0.0152,0.0191,0.0244,0.0236,0.0299,0.0357,0.0367,0.0394,0.0388,0.0371,0.0359,0.0441,0.0434,0.046,0.0509,0.0509,0.0509,0.0212,0.0177,0.0164,0.0204,0.0298,0.0305,0.0343,0.037,0.0462,0.0515,0.0389,0.029,0.0248,0.0235,0.0349,0.0343,0.038,0,0]}],[{"header":{"parameterUnit":"m.s-1","parameterCategory":2,"la1":30.2992,"la2":30.254,"lo1":-89.0895,"lo2":-89.0443,"dy":0.0025,"dx":0.0025,"nx":19,"ny":19,"refTime":"2026-05-10T09:00:00:Z","depth":"4","parameterNumber":2,"parameterNumberName":"U-component_of_CURRENTS"},"data":[0,0,0,0.01,0.0105,0.0248,0.0248,0.0112,0.011,0,0,0,0,0,0,0,0,0,0,0,0.0063,0.0066,0.01,0.0105,0.0248,0.0248,0.0112,0.011,0,0,0,0,0,0,0,0,0,0,0,0.0062,0.0065,0.0068,0.0106,0.0248,0.0248,0.0113,0.0075,0,0,0,0,0,0,0,0,0,0,-0.0028,0.0002,0.0065,0.0068,0.0107,0.0248,0.0248,0.0076,0.0077,-0.0032,0,0.0044,0,0.0079,0.0097,0.0097,0,0,0,0.0067,0.0002,0.0042,0.0069,0.0109,0.0248,0.0172,0.0079,0.0079,-0.0032,0.0043,0.0039,0.0076,0.0096,0.0095,-0.0026,-0.0026,0,0,0.0059,0.0065,0.0043,0.0045,0.0208,0.0168,0.0177,0.0082,0.0099,0.0042,0.0037,0.0074,0.0095,0.0093,-0.0027,-0.0026,0,0,0,0.0062,0.006,0.0108,0.0048,0.0103,0.0173,0.0184,0.0104,0.0124,0.0037,0.0073,0.0094,0.0091,-0.0027,-0.0027,0.0125,0,0,0,0.0055,0.0065,0.0106,0.0107,0.0109,0.015,0.0207,0.0131,0.0122,0.0073,0.0094,0.009,-0.0027,-0.0027,0.012,0.0136,0,0,0,0.0046,0.0062,0.01,0.0108,0.0187,0.0155,0.0169,0.0131,0.0143,0.0097,0.0089,-0.0027,-0.0027,0.0117,0.013,0.008,0,0,0,0.0012,0.0078,0.0102,0.0165,0.0187,0.0206,0.0171,0.0188,0.0161,0.0093,-0.0027,-0.0027,0.0115,0.0127,0.0078,-0.0039,0,0,0,0.0057,0.0084,0.011,0.0134,0.0169,0.018,0.0183,0.0159,0.0115,-0.0026,-0.0026,0.0122,0.013,0.0079,-0.0024,0,0,0,0,0.0095,0.0128,0.0136,0.0179,0.0188,0.0201,0.0186,0.0172,0.0156,0.0111,0.0084,0.0082,0.0046,-0.0029,-0.0025,-0.0025,-0.0025,-0.0025,-0.0025,0.0152,0.0149,0.018,0.0186,0.0197,0.0206,0.0212,0.0183,0.0151,0.0188,0.0181,0.0204,0.0135,0.0174,0.0175,0.0176,0.0176,0.0177,0.0177,0.0186,0.0197,0.0204,0.0247,0.0251,0.0269,0.0236,0.0265,0.024,0.0243,0.0203,0.0107,0.0191,0.0188,0.0186,0.0185,0.0183,0.0183,0.0182,0.0203,0.0204,0.0262,0.0306,0.0349,0.035,0.0304,0.0352,0.0337,0.0351,0.0196,0.0245,0.0254,0.0341,0.0341,0.034,0.034,0.034,0.034,0.0197,0.0236,0.0301,0.0357,0.0389,0.0402,0.0376,0.0275,0.0279,0.0289,0.0377,0.0256,0.0251,0.0258,0.0339,0.0339,0.0339,0.0339,0.0339,0.0181,0.0252,0.0304,0.0352,0.0349,0.0306,0.031,0.0147,0.0061,-0.0015,0.0208,0.0215,0.0114,0.0111,0.0109,0.0149,0.0148,0.0147,0,0.0181,0.0211,0.0279,0.0276,0.0203,0.0197,0.0043,-0.0073,-0.0059,0.0054,-0.004,0.0218,0.0223,0.0107,0.0102,0.0098,0,0,0,0.0161,0.0187,0.0203,0.0212,0.0108,-0.0007,-0.0023,-0.0067,0.0104,-0.0169,0.0115,0.0123,-0.0033,0.0334,0.0191,0.0185,0.0186,0,0]},{"header":{"parameterUnit":"m.s-1","parameterCategory":2,"la1":30.2992,"la2":30.254,"lo1":-89.0895,"lo2":-89.0443,"dy":0.0025,"dx":0.0025,"nx":19,"ny":19,"refTime":"2026-05-10T09:00:00:Z","depth":"4","parameterNumber":3,"parameterNumberName":"V-component_of_CURRENTS"},"data":[0,0,0,0.0592,0.0591,0.0529,0.0528,0.0384,0.0383,0,0,0,0,0,0,0,0,0,0,0,0.0623,0.0623,0.0592,0.0591,0.0529,0.0528,0.0384,0.0383,0,0,0,0,0,0,0,0,0,0,0,0.0623,0.0623,0.0623,0.0591,0.0529,0.0528,0.0385,0.0443,0,0,0,0,0,0,0,0,0,0,0.0509,0.0558,0.0623,0.0623,0.0591,0.0529,0.0528,0.0446,0.0439,0.0401,0,0.0415,0,0.04,0.0374,0.0373,0,0,0,0.057,0.0564,0.0546,0.0623,0.0591,0.0529,0.0551,0.0442,0.0434,0.0391,0.0413,0.0408,0.0397,0.0373,0.0372,0.0246,0.0246,0,0,0.0573,0.0602,0.0553,0.0543,0.0604,0.0553,0.0549,0.0438,0.0441,0.0413,0.0404,0.0395,0.0372,0.0371,0.0247,0.0246,0,0,0,0.0598,0.0605,0.0591,0.0548,0.0545,0.0552,0.0547,0.0446,0.0443,0.0403,0.0393,0.0371,0.0369,0.0247,0.0247,0.0284,0,0,0,0.0599,0.062,0.0593,0.0607,0.0548,0.0504,0.0558,0.045,0.0437,0.0394,0.0371,0.0368,0.0247,0.0247,0.0283,0.032,0,0,0,0.062,0.0621,0.0624,0.061,0.0591,0.0506,0.0495,0.0447,0.0432,0.0373,0.0368,0.0248,0.0247,0.0283,0.0319,0.0291,0,0,0,0.0636,0.0629,0.0626,0.0598,0.0592,0.0512,0.0496,0.0436,0.0388,0.037,0.0247,0.0247,0.0283,0.0318,0.0291,0.0209,0,0,0,0.0625,0.0629,0.0603,0.0598,0.0526,0.0518,0.0437,0.0382,0.036,0.0277,0.0274,0.0283,0.0318,0.0291,0.0159,0,0,0,0,0.0595,0.0588,0.056,0.0526,0.0471,0.0433,0.038,0.0357,0.031,0.0333,0.0256,0.0276,0.0258,0.0208,0.0242,0.0243,0.0243,0.0243,0.0243,0.0615,0.0568,0.0522,0.0467,0.0427,0.0364,0.0328,0.029,0.0275,0.0269,0.0285,0.0265,0.0211,0.0249,0.0249,0.0249,0.0249,0.0249,0.025,0.0583,0.0543,0.0508,0.0464,0.0421,0.0382,0.0303,0.0299,0.0261,0.0271,0.0251,0.0225,0.0253,0.0252,0.0251,0.0251,0.0251,0.0251,0.0251,0.0585,0.0557,0.0556,0.0503,0.0483,0.0436,0.0388,0.0374,0.0316,0.0304,0.0234,0.0278,0.0298,0.0303,0.0303,0.0303,0.0303,0.0303,0.0304,0.0584,0.0567,0.0568,0.0541,0.0541,0.0539,0.0474,0.0373,0.0314,0.0272,0.0335,0.0283,0.0281,0.0299,0.0304,0.0304,0.0304,0.0304,0.0304,0.053,0.0572,0.0559,0.0569,0.0546,0.0509,0.0506,0.0301,0.0206,0.0085,0.0215,0.022,0.0195,0.0196,0.021,0.0189,0.0188,0.0187,0,0.0513,0.0522,0.0531,0.0528,0.047,0.0468,0.0313,0.0183,0.0088,0.0165,0.0119,0.0274,0.0275,0.0252,0.025,0.0268,0,0,0,0.0462,0.0485,0.0484,0.0499,0.0417,0.0294,0.0254,0.0171,0.025,-0.0029,0.0161,0.0168,0.006,0.0306,0.0278,0.0276,0.0303,0,0]}]]